CEB321 RPVM-RPLL

Flight info

Callsign CEB321
Flight time N/A
Altitude 38000
Route PARAO4P PARAO DCT ROX DCT LAIYA LAIYA5R
Aircraft A20N/M-SDE2E3FGHIRWXY/LB1

Departure

Time 2026-05-05 15:46
Airport Mactan Cebu International Airport (RPVM)

Arrival

Time N/A
Airport Ninoy Aquino International Airport (RPLL)
Time Latitude Longitude Altitude Speed Heading
2026-05-05 15:07 10.31547 123.97980 38 ft 0 kts 315°
2026-05-05 15:30 10.31542 123.97984 38 ft 2 kts 315°
2026-05-05 15:30 10.31531 123.97995 38 ft 2 kts 315°
2026-05-05 15:30 10.31521 123.98006 38 ft 2 kts 315°
2026-05-05 15:30 10.31514 123.98013 38 ft 2 kts 312°
2026-05-05 15:31 10.31507 123.98027 38 ft 2 kts 277°
2026-05-05 15:31 10.31508 123.98042 38 ft 2 kts 251°
2026-05-05 15:31 10.31514 123.98054 38 ft 0 kts 228°
2026-05-05 15:31 10.31514 123.98053 38 ft 2 kts 229°
2026-05-05 15:32 10.31497 123.98035 38 ft 1 kts 225°
2026-05-05 15:32 10.31496 123.98034 38 ft 0 kts 225°
2026-05-05 15:35 10.31496 123.98033 38 ft 0 kts 225°
2026-05-05 15:35 10.31492 123.98029 38 ft 1 kts 225°
2026-05-05 15:35 10.31480 123.98018 38 ft 3 kts 226°
2026-05-05 15:35 10.31461 123.97997 38 ft 4 kts 226°
2026-05-05 15:36 10.31433 123.97968 38 ft 6 kts 225°
2026-05-05 15:36 10.31403 123.97937 38 ft 6 kts 226°
2026-05-05 15:36 10.31371 123.97907 38 ft 6 kts 216°
2026-05-05 15:36 10.31331 123.97900 38 ft 5 kts 160°
2026-05-05 15:37 10.31299 123.97923 38 ft 5 kts 136°
2026-05-05 15:37 10.31272 123.97951 38 ft 5 kts 135°
2026-05-05 15:37 10.31245 123.97975 38 ft 5 kts 149°
2026-05-05 15:37 10.31210 123.97977 38 ft 5 kts 197°
2026-05-05 15:38 10.31173 123.97952 38 ft 7 kts 223°
2026-05-05 15:38 10.31133 123.97912 38 ft 8 kts 225°
2026-05-05 15:38 10.31092 123.97870 38 ft 8 kts 225°
2026-05-05 15:38 10.31051 123.97829 38 ft 8 kts 225°
2026-05-05 15:39 10.31011 123.97788 38 ft 8 kts 225°
2026-05-05 15:39 10.30971 123.97748 38 ft 8 kts 224°
2026-05-05 15:39 10.30932 123.97708 38 ft 7 kts 225°
2026-05-05 15:39 10.30893 123.97669 38 ft 7 kts 225°
2026-05-05 15:40 10.30852 123.97627 38 ft 8 kts 225°
2026-05-05 15:40 10.30806 123.97580 38 ft 10 kts 225°
2026-05-05 15:40 10.30753 123.97527 38 ft 11 kts 224°
2026-05-05 15:40 10.30695 123.97469 38 ft 12 kts 225°
2026-05-05 15:41 10.30633 123.97407 38 ft 12 kts 224°
2026-05-05 15:41 10.30566 123.97341 38 ft 13 kts 224°
2026-05-05 15:41 10.30497 123.97272 38 ft 14 kts 225°
2026-05-05 15:41 10.30424 123.97199 38 ft 14 kts 225°
2026-05-05 15:42 10.30349 123.97125 38 ft 15 kts 224°
2026-05-05 15:42 10.30272 123.97048 38 ft 15 kts 225°
2026-05-05 15:42 10.30193 123.96968 38 ft 16 kts 224°
2026-05-05 15:42 10.30110 123.96886 38 ft 16 kts 224°
2026-05-05 15:43 10.30028 123.96804 38 ft 16 kts 225°
2026-05-05 15:43 10.29946 123.96722 38 ft 10 kts 223°
2026-05-05 15:43 10.29878 123.96714 38 ft 11 kts 146°
2026-05-05 15:43 10.29820 123.96770 38 ft 11 kts 134°
2026-05-05 15:44 10.29761 123.96832 38 ft 12 kts 135°
2026-05-05 15:44 10.29720 123.96873 38 ft 5 kts 132°
2026-05-05 15:44 10.29726 123.96908 38 ft 6 kts 51°
2026-05-05 15:44 10.29733 123.96915 38 ft 0 kts 46°
2026-05-05 15:45 10.29820 123.97004 38 ft 53 kts 44°
2026-05-05 15:45 10.30274 123.97458 38 ft 126 kts 45°
2026-05-05 15:45 10.31025 123.98219 229 ft 166 kts 44°
2026-05-05 15:46 10.31828 123.99036 961 ft 166 kts 45°
2026-05-05 15:46 10.32620 123.99837 1748 ft 164 kts 45°
2026-05-05 15:46 10.33441 124.00669 2284 ft 174 kts 45°
2026-05-05 15:46 10.34431 124.01463 2716 ft 189 kts 23°
2026-05-05 15:47 10.35778 124.01450 3053 ft 211 kts 341°
2026-05-05 15:47 10.36657 124.00925 3313 ft 224 kts 327°
2026-05-05 15:47 10.38330 123.99448 3753 ft 255 kts 315°
2026-05-05 15:47 10.39569 123.98063 4210 ft 272 kts 313°
2026-05-05 15:48 10.40839 123.96616 4880 ft 280 kts 313°
2026-05-05 15:48 10.42140 123.95152 5634 ft 284 kts 314°
2026-05-05 15:48 10.43490 123.93652 6375 ft 288 kts 314°
2026-05-05 15:48 10.44842 123.92163 7103 ft 291 kts 314°
2026-05-05 15:49 10.46213 123.90661 7808 ft 294 kts 314°
2026-05-05 15:49 10.47614 123.89132 8507 ft 297 kts 314°
2026-05-05 15:49 10.49029 123.87591 9188 ft 301 kts 314°
2026-05-05 15:49 10.50466 123.86028 9851 ft 304 kts 314°
2026-05-05 15:50 10.51914 123.84453 10440 ft 309 kts 314°
2026-05-05 15:50 10.53428 123.82810 10776 ft 324 kts 314°
2026-05-05 15:50 10.54971 123.81132 11283 ft 330 kts 314°
2026-05-05 15:50 10.56550 123.79414 11891 ft 333 kts 314°
2026-05-05 15:51 10.58118 123.77707 12476 ft 335 kts 315°
2026-05-05 15:51 10.59729 123.75954 13063 ft 337 kts 314°
2026-05-05 15:51 10.61326 123.74218 13623 ft 340 kts 315°
2026-05-05 15:51 10.62941 123.72461 14154 ft 342 kts 314°
2026-05-05 15:52 10.64588 123.70670 14673 ft 345 kts 314°
2026-05-05 15:52 10.66224 123.68890 15177 ft 348 kts 314°
2026-05-05 15:52 10.67886 123.67080 15667 ft 351 kts 314°
2026-05-05 15:52 10.69549 123.65269 16140 ft 354 kts 314°
2026-05-05 15:53 10.71250 123.63416 16621 ft 357 kts 314°